Weather History for YCIN - October, 2012

Change the Weather History Date:

Wednesday, October 10, 2012

  Actual Average Record
Temperature  
Mean Temperature 90 °F -  
Max Temperature 108 °F - - ()
Min Temperature 73 °F - - ()
Cooling Degree Days 26    
Growing Degree Days 40 (Base 50)    
Moisture  
Dew Point 62 °F    
Average Humidity 53    
Maximum Humidity 94    
Minimum Humidity 6    
Precipitation  
Precipitation 0.00 in - - ()
Sea Level Pressure  
Sea Level Pressure 29.80 in    
Wind  
Wind Speed 5 mph ()    
Max Wind Speed 10 mph    
Max Gust Speed -    
T = Trace of Precipitation, MM = Missing Value Source: Averaged Metar Reports

Daily Weather History Graph

Daily Weather History Graph

Search for Another Location

Airport or City:

Trip Planner

Search our weather history database for the weather conditions in past years. The results will help you decide how hot, cold, wet, or windy it might be!

Date:

Astronomy

Oct. 10, 2012 Rise Set
Actual Time 5:19 AM AWST 5:43 PM AWST
Civil Twilight 4:57 AM AWST 6:05 PM AWST
Nautical Twilight 4:32 AM AWST 6:31 PM AWST
Astronomical Twilight 4:06 AM AWST 6:57 PM AWST
Moon 1:05 AM AWST (10/10) 12:50 PM AWST (10/10)
Length of Visible Light 13h 07m
Length of Day
12h 24m
Waning Crescent, 32% of the Moon is Illuminated
Oct 10
Waning Crescent
Oct 15
New
Oct 22
First Quarter
Oct 30
Full
Nov 7
Last Quarter

Hourly Weather History & Observations

Time (AWST) Temp. Heat Index Dew Point Humidity Pressure Visibility Wind Dir Wind Speed Gust Speed Precip Events Conditions
12:00 AM 78 °F - 73 °F 79% 29.78 in - NW 5.8 mph - -  
12:00 AM 77.0 °F - 73.4 °F 89% 29.77 in - NW 5.8 mph - N/A   Unknown
1:00 AM 77.0 °F - 73.4 °F 89% 29.77 in - NNW 5.8 mph - N/A   Unknown
2:00 AM 77.0 °F - 73.4 °F 89% 29.77 in - NNW 5.8 mph - N/A   Unknown
3:00 AM 76 °F - 72 °F 83% 29.79 in - North 3.5 mph - -  
3:00 AM 77.0 °F - 71.6 °F 83% 29.80 in - North 3.5 mph - N/A   Unknown
4:00 AM 75.2 °F - 71.6 °F 89% 29.80 in - WNW 4.6 mph - N/A   Unknown
5:00 AM 73.4 °F - 71.6 °F 94% 29.83 in - Calm Calm - N/A   Unknown
6:00 AM 74 °F - 72 °F 93% 29.83 in - NNW 1.2 mph - -  
6:00 AM 75.2 °F - 71.6 °F 89% 29.83 in - NNW 1.2 mph - N/A   Unknown
7:00 AM 78.8 °F - 75.2 °F 89% 29.86 in - WSW 5.8 mph - N/A   Unknown
8:00 AM 86.0 °F 90.4 °F 69.8 °F 58% 29.86 in - SW 5.8 mph - N/A   Unknown
9:00 AM 90 °F - 61 °F 28% 29.87 in - SSE 6.9 mph - -  
9:00 AM 89.6 °F 89.5 °F 60.8 °F 38% 29.86 in - SSE 6.9 mph - N/A   Unknown
10:00 AM 96.8 °F 95.8 °F 57.2 °F 27% 29.86 in - SE 8.1 mph - N/A   Unknown
11:00 AM 100.4 °F 98.8 °F 55.4 °F 22% 29.83 in - East 6.9 mph - N/A   Unknown
12:00 PM 103 °F - 50 °F 10% 29.79 in - SE 5.8 mph - -  
12:00 PM 102.2 °F - 50.0 °F 17% 29.80 in - SE 5.8 mph - N/A   Unknown
1:00 PM 105.8 °F - 44.6 °F 13% 29.77 in - SSE 9.2 mph - N/A   Unknown
2:00 PM 107.6 °F - 46.4 °F 13% 29.74 in - SSE 8.1 mph - N/A   Unknown
3:00 PM 106 °F - 43 °F 6% 29.73 in - SSE 6.9 mph - -  
3:00 PM 105.8 °F - 42.8 °F 12% 29.74 in - SSE 6.9 mph - N/A   Unknown
4:00 PM 105.8 °F - 37.4 °F 10% 29.74 in - SE 10.4 mph - N/A   Unknown
5:00 PM 104.0 °F - 44.6 °F 13% 29.74 in - South 4.6 mph - N/A   Unknown
6:00 PM 91 °F - 61 °F 26% 29.78 in - NW 5.8 mph - -  
6:00 PM 91.4 °F 91.4 °F 60.8 °F 36% 29.77 in - NW 5.8 mph - N/A   Unknown
7:00 PM 84.2 °F 85.6 °F 64.4 °F 51% 29.80 in - WNW 4.6 mph - N/A   Unknown
8:00 PM 80.6 °F 83.2 °F 68.0 °F 65% 29.83 in - NW 4.6 mph - N/A   Unknown
9:00 PM 76 °F - 65 °F 62% 29.84 in - Calm Calm - -  
9:00 PM 77.0 °F - 66.2 °F 69% 29.83 in - Calm Calm - N/A   Unknown
10:00 PM 73.4 °F - 64.4 °F 73% 29.86 in - Calm Calm - N/A   Unknown
11:00 PM 73.4 °F - 64.4 °F 73% 29.86 in - ENE 4.6 mph - N/A   Unknown